Sigonella, Italy

3:58 AM CEST on March 30, 2017 (GMT +0200)
Sigonella

Weather History for LICZ - February, 2013

Change the Weather History Date:

Wednesday, February 6, 2013

  Actual Average Record
Temperature  
Mean Temperature 52 °F -  
Max Temperature 63 °F 62 °F 66 °F (2001)
Min Temperature 40 °F 42 °F 32 °F (2005)
Degree Days  
Heating Degree Days 14    
Growing Degree Days 2 (Base 50)    
Moisture  
Dew Point 47 °F    
Average Humidity 87    
Maximum Humidity 100    
Minimum Humidity 47    
Precipitation  
Precipitation 0.00 in 0.06 in - ()
Sea Level Pressure  
Sea Level Pressure 29.75 in    
Wind  
Wind Speed 9 mph ()    
Max Wind Speed 23 mph    
Max Gust Speed 34 mph    
Visibility 6.1 miles    
Events Rain    
Averages and records for this station are not official NWS values.
T = Trace of Precipitation, MM = Missing Value Source: Averaged Metar Reports

Daily Weather History Graph

Daily Weather History Graph

Search for Another Location

Airport or City:

Trip Planner

Search our weather history database for the weather conditions in past years. The results will help you decide how hot, cold, wet, or windy it might be!

Date:

Astronomy

Feb. 06, 2013 Rise Set
Actual Time 6:59 AM CET 5:30 PM CET
Civil Twilight 6:31 AM CET 5:57 PM CET
Nautical Twilight 6:00 AM CET 6:28 PM CET
Astronomical Twilight 5:30 AM CET 6:58 PM CET
Moon 3:22 AM CET (2/6) 1:32 PM CET (2/6)
Length of Visible Light 11h 25m
Length of Day
10h 31m
Waning Crescent, 19% of the Moon is Illuminated
Feb 6
Waning Crescent
Feb 10
New
Feb 17
First Quarter
Feb 25
Full
Mar 4
Last Quarter

Hourly Weather History & Observations

Time (CET) Temp. Windchill Dew Point Humidity Pressure Visibility Wind Dir Wind Speed Gust Speed Precip Events Conditions
12:55 AM 41.0 °F 38.0 °F 41.0 °F 100% 29.92 in 6.2 mi WSW 4.6 mph - N/A   Scattered Clouds
1:00 AM 41 °F - 41 °F 98% 29.93 in 6 mi WSW 4.6 mph - -   Partly Cloudy
1:55 AM 41.0 °F 38.0 °F 41.0 °F 100% 29.92 in 6.2 mi WSW 4.6 mph - N/A   Scattered Clouds
2:55 AM 42.8 °F - 42.8 °F 100% 29.89 in 6.2 mi East 2.3 mph - N/A   Mostly Cloudy
3:55 AM 48.2 °F - 48.2 °F 100% 29.86 in 6.2 mi West 11.5 mph - N/A   Scattered Clouds
4:00 AM 49 °F - 47 °F 92% 29.87 in 6 mi West 11.5 mph - -   Partly Cloudy
4:55 AM 48.2 °F - 46.4 °F 93% 29.86 in 6.2 mi West 10.4 mph - N/A   Scattered Clouds
5:55 AM 46.4 °F 41.1 °F 46.4 °F 100% 29.86 in 6.2 mi West 11.5 mph - N/A   Scattered Clouds
6:55 AM 50.0 °F - 48.2 °F 94% 29.83 in 6.2 mi WNW 6.9 mph - N/A   Mostly Cloudy
7:00 AM 49 °F - 49 °F 99% 29.86 in 6 mi WNW 6.9 mph - -   Mostly Cloudy
7:55 AM 46.4 °F 42.4 °F 46.4 °F 100% 29.83 in 6.2 mi West 8.1 mph - N/A   Mostly Cloudy
8:55 AM 51.8 °F - 50.0 °F 94% 29.80 in 6.2 mi WNW 9.2 mph - N/A   Mostly Cloudy
9:55 AM 51.8 °F - 51.8 °F 100% 29.80 in 6.2 mi WSW 13.8 mph - N/A   Mostly Cloudy
10:00 AM 53 °F - 51 °F 92% 29.81 in 5 mi WSW 13.8 mph - -   Mist
10:55 AM 55.4 °F - 51.8 °F 88% 29.80 in 6.2 mi West 13.8 mph - N/A   Mostly Cloudy
11:55 AM 55.4 °F - 48.2 °F 77% 29.77 in 6.2 mi West 11.5 mph - N/A   Mostly Cloudy
12:55 PM 57.2 °F - 48.2 °F 72% 29.71 in 6.2 mi WSW 16.1 mph - N/A   Mostly Cloudy
1:00 PM 57 °F - 49 °F 66% 29.74 in 7 mi WSW 16.1 mph - -   Partly Cloudy
1:55 PM 59.0 °F - 46.4 °F 63% 29.68 in 6.2 mi WSW 13.8 mph - N/A   Scattered Clouds
2:55 PM 60.8 °F - 46.4 °F 59% 29.65 in 6.2 mi West 16.1 mph - N/A   Mostly Cloudy
3:55 PM 60.8 °F - 46.4 °F 59% 29.65 in 6.2 mi WSW 18.4 mph - N/A   Mostly Cloudy
4:00 PM 61 °F - 46 °F 47% 29.65 in 9 mi WSW 18.4 mph - -   Mostly Cloudy
4:55 PM 57.2 °F - 46.4 °F 67% 29.62 in 6.2 mi WSW 16.1 mph - N/A   Scattered Clouds
5:55 PM 55.4 °F - 48.2 °F 77% 29.62 in 6.2 mi West 13.8 mph - N/A   Scattered Clouds
6:55 PM 51.8 °F - 48.2 °F 88% 29.65 in 3.7 mi WNW 23.0 mph 34.5 mph N/A Rain Light Rain
7:00 PM 53 °F - 48 °F 79% 29.66 in 4 mi WNW 23.0 mph - - Rain Light Rain
7:55 PM 48.2 °F - 48.2 °F 100% 29.65 in 6.2 mi NW 4.6 mph - N/A   Mostly Cloudy
8:55 PM 48.2 °F - 48.2 °F 100% 29.65 in 6.2 mi North 4.6 mph - N/A   Mostly Cloudy
9:55 PM 50.0 °F - 50.0 °F 100% 29.62 in 6.2 mi West 6.9 mph - N/A   Mostly Cloudy
10:00 PM 49 °F - 49 °F 100% 29.64 in 6 mi West 6.9 mph - -   Partly Cloudy
10:55 PM 48.2 °F - 48.2 °F 100% 29.62 in 6.2 mi West 8.1 mph - N/A   Mostly Cloudy
11:55 PM 48.2 °F - 46.4 °F 93% 29.62 in 6.2 mi West 9.2 mph - N/A   Mostly Cloudy